Weather in Borovikha

Russia / Altai Krai     53°30′23″N   83°50′29″E
temp.,
°C
wind,
m/s
gust,
m/s
humid.,
%
clouds,
%
prec.,
mm/h
press.,
hPa
HPBL,
m
10 may, mon
mon1001:00+7ene412535 0.0 1020578
04:00+5ne413644 0.0 1020509
07:00+6ne513728 0.0 1020572
10:00+11ene69485 0.0 10201004
13:00+15ene693597 0.0 10181601
16:00+17ene68295 0.0 10161936
19:00+16ene5934100 0.0 10151870
22:00+12nne41251100 0.0 1015348
11 may, tue
tue1101:00+10ne41255100 0.0 1015431
04:00+8nne41165100 0.0 1014375
07:00+7nne4106984 0.0 1015385
10:00+13nne56495 0.0 10151025
13:00+17nne46345 0.0 10141866
16:00+19nne46289 0.0 10132758
19:00+18nne463293 0.0 10132726
22:00+14n6144471 0.0 1015631
12 may, wed
wed1201:00+11n514598 0.0 1016513
04:00+9n411677 0.0 1016365
07:00+9n410755 0.0 1017304
10:00+15n47495 0.0 1017878
13:00+18nne4537100 0.0 10172296
16:00+18nnw563562 0.0 10172141
19:00+17nnw454257 0.0 10181051
22:00+13nnw385886 0.0 1019152
13 may, thu
thu1301:00+11n226213 0.0 101917
04:00+9nne007264 0.0 101810
07:00+10e1174100 0.9 101823
10:00+16e115089 0.1 1018597
13:00+17ese224199 0.1 10171225
16:00+20e123399 0.0 10152576
19:00+18nnw113958 0.0 1016868
22:00+14w355491 0.0 101694
14 may, fri
fri1401:00+10nnw2576100 0.1 1016104
04:00+10wnw2479100 0.2 1016143
07:00+10nw2683100 0.3 1016282
10:00+14nnw576032 0.5 10161339
13:00+15nnw584494 0.6 10171624
16:00+17nnw5737100 0.0 10172370
19:00+15nnw684069 0.0 10191660
22:00+9nnw3744100 0.0 1022146